index,time,SiteAddr,SiteName,app,area,date,device_id,gps_alt,gps_fix,gps_lat,gps_lon,gps_num,name,s_d0,s_d1,s_d2,s_h0,s_t0,timestamp
0,20:13:52,高雄市立龍肚國民中學 高雄市美濃區龍山里中華路68號,高雄市市立龍肚國中(2018),AirBox,kaohsiung,2024-03-21,74DA38F20E3E,2.0,1.0,22.878,120.57,9.0,admin,7.0,8.0,4.0,54.0,27.12,2024-03-21T20:13:52Z
1,20:19:58,高雄市立龍肚國民中學 高雄市美濃區龍山里中華路68號,高雄市市立龍肚國中(2018),AirBox,kaohsiung,2024-03-21,74DA38F20E3E,2.0,1.0,22.878,120.57,9.0,admin,7.0,8.0,4.0,54.0,27.25,2024-03-21T20:19:58Z
2,20:26:03,高雄市立龍肚國民中學 高雄市美濃區龍山里中華路68號,高雄市市立龍肚國中(2018),AirBox,kaohsiung,2024-03-21,74DA38F20E3E,2.0,1.0,22.878,120.57,9.0,admin,7.0,8.0,4.0,54.0,27.12,2024-03-21T20:26:03Z
3,20:32:10,高雄市立龍肚國民中學 高雄市美濃區龍山里中華路68號,高雄市市立龍肚國中(2018),AirBox,kaohsiung,2024-03-21,74DA38F20E3E,2.0,1.0,22.878,120.57,9.0,admin,7.0,8.0,4.0,53.0,27.12,2024-03-21T20:32:10Z
4,20:38:19,高雄市立龍肚國民中學 高雄市美濃區龍山里中華路68號,高雄市市立龍肚國中(2018),AirBox,kaohsiung,2024-03-21,74DA38F20E3E,2.0,1.0,22.878,120.57,9.0,admin,8.0,9.0,5.0,54.0,27.12,2024-03-21T20:38:19Z
5,20:44:54,高雄市立龍肚國民中學 高雄市美濃區龍山里中華路68號,高雄市市立龍肚國中(2018),AirBox,kaohsiung,2024-03-21,74DA38F20E3E,2.0,1.0,22.878,120.57,9.0,admin,7.0,8.0,4.0,54.0,27.25,2024-03-21T20:44:54Z
6,20:51:02,高雄市立龍肚國民中學 高雄市美濃區龍山里中華路68號,高雄市市立龍肚國中(2018),AirBox,kaohsiung,2024-03-21,74DA38F20E3E,2.0,1.0,22.878,120.57,9.0,admin,7.0,8.0,4.0,54.0,27.12,2024-03-21T20:51:02Z
7,20:57:08,高雄市立龍肚國民中學 高雄市美濃區龍山里中華路68號,高雄市市立龍肚國中(2018),AirBox,kaohsiung,2024-03-21,74DA38F20E3E,2.0,1.0,22.878,120.57,9.0,admin,7.0,8.0,5.0,54.0,27.12,2024-03-21T20:57:08Z
8,21:03:14,高雄市立龍肚國民中學 高雄市美濃區龍山里中華路68號,高雄市市立龍肚國中(2018),AirBox,kaohsiung,2024-03-21,74DA38F20E3E,2.0,1.0,22.878,120.57,9.0,admin,7.0,8.0,4.0,53.0,27.12,2024-03-21T21:03:14Z
9,21:09:19,高雄市立龍肚國民中學 高雄市美濃區龍山里中華路68號,高雄市市立龍肚國中(2018),AirBox,kaohsiung,2024-03-21,74DA38F20E3E,2.0,1.0,22.878,120.57,9.0,admin,7.0,8.0,4.0,54.0,27.25,2024-03-21T21:09:19Z
10,21:15:25,高雄市立龍肚國民中學 高雄市美濃區龍山里中華路68號,高雄市市立龍肚國中(2018),AirBox,kaohsiung,2024-03-21,74DA38F20E3E,2.0,1.0,22.878,120.57,9.0,admin,7.0,8.0,4.0,53.0,27.12,2024-03-21T21:15:25Z
11,21:21:31,高雄市立龍肚國民中學 高雄市美濃區龍山里中華路68號,高雄市市立龍肚國中(2018),AirBox,kaohsiung,2024-03-21,74DA38F20E3E,2.0,1.0,22.878,120.57,9.0,admin,7.0,8.0,5.0,53.0,27.12,2024-03-21T21:21:31Z
12,21:27:37,高雄市立龍肚國民中學 高雄市美濃區龍山里中華路68號,高雄市市立龍肚國中(2018),AirBox,kaohsiung,2024-03-21,74DA38F20E3E,2.0,1.0,22.878,120.57,9.0,admin,7.0,8.0,4.0,53.0,27.12,2024-03-21T21:27:37Z
13,21:40:21,高雄市立龍肚國民中學 高雄市美濃區龍山里中華路68號,高雄市市立龍肚國中(2018),AirBox,kaohsiung,2024-03-21,74DA38F20E3E,2.0,1.0,22.878,120.57,9.0,admin,8.0,8.0,4.0,53.0,27.12,2024-03-21T21:40:21Z
14,21:46:27,高雄市立龍肚國民中學 高雄市美濃區龍山里中華路68號,高雄市市立龍肚國中(2018),AirBox,kaohsiung,2024-03-21,74DA38F20E3E,2.0,1.0,22.878,120.57,9.0,admin,7.0,8.0,4.0,53.0,27.25,2024-03-21T21:46:27Z
15,21:52:33,高雄市立龍肚國民中學 高雄市美濃區龍山里中華路68號,高雄市市立龍肚國中(2018),AirBox,kaohsiung,2024-03-21,74DA38F20E3E,2.0,1.0,22.878,120.57,9.0,admin,7.0,8.0,4.0,53.0,27.25,2024-03-21T21:52:33Z
16,21:58:39,高雄市立龍肚國民中學 高雄市美濃區龍山里中華路68號,高雄市市立龍肚國中(2018),AirBox,kaohsiung,2024-03-21,74DA38F20E3E,2.0,1.0,22.878,120.57,9.0,admin,7.0,8.0,4.0,53.0,27.12,2024-03-21T21:58:39Z
17,22:04:45,高雄市立龍肚國民中學 高雄市美濃區龍山里中華路68號,高雄市市立龍肚國中(2018),AirBox,kaohsiung,2024-03-21,74DA38F20E3E,2.0,1.0,22.878,120.57,9.0,admin,7.0,8.0,4.0,53.0,27.12,2024-03-21T22:04:45Z
18,22:10:59,高雄市立龍肚國民中學 高雄市美濃區龍山里中華路68號,高雄市市立龍肚國中(2018),AirBox,kaohsiung,2024-03-21,74DA38F20E3E,2.0,1.0,22.878,120.57,9.0,admin,6.0,8.0,4.0,53.0,27.25,2024-03-21T22:10:59Z
19,22:17:05,高雄市立龍肚國民中學 高雄市美濃區龍山里中華路68號,高雄市市立龍肚國中(2018),AirBox,kaohsiung,2024-03-21,74DA38F20E3E,2.0,1.0,22.878,120.57,9.0,admin,7.0,7.0,4.0,53.0,27.25,2024-03-21T22:17:05Z
20,22:23:16,高雄市立龍肚國民中學 高雄市美濃區龍山里中華路68號,高雄市市立龍肚國中(2018),AirBox,kaohsiung,2024-03-21,74DA38F20E3E,2.0,1.0,22.878,120.57,9.0,admin,7.0,8.0,4.0,53.0,27.25,2024-03-21T22:23:16Z
21,22:29:24,高雄市立龍肚國民中學 高雄市美濃區龍山里中華路68號,高雄市市立龍肚國中(2018),AirBox,kaohsiung,2024-03-21,74DA38F20E3E,2.0,1.0,22.878,120.57,9.0,admin,9.0,11.0,5.0,52.0,27.0,2024-03-21T22:29:24Z
22,22:42:16,高雄市立龍肚國民中學 高雄市美濃區龍山里中華路68號,高雄市市立龍肚國中(2018),AirBox,kaohsiung,2024-03-21,74DA38F20E3E,2.0,1.0,22.878,120.57,9.0,admin,28.0,31.0,21.0,55.0,26.0,2024-03-21T22:42:16Z
23,22:48:32,高雄市立龍肚國民中學 高雄市美濃區龍山里中華路68號,高雄市市立龍肚國中(2018),AirBox,kaohsiung,2024-03-21,74DA38F20E3E,2.0,1.0,22.878,120.57,9.0,admin,26.0,29.0,19.0,56.0,25.62,2024-03-21T22:48:32Z
24,22:54:48,高雄市立龍肚國民中學 高雄市美濃區龍山里中華路68號,高雄市市立龍肚國中(2018),AirBox,kaohsiung,2024-03-21,74DA38F20E3E,2.0,1.0,22.878,120.57,9.0,admin,22.0,24.0,14.0,57.0,25.25,2024-03-21T22:54:48Z
25,23:00:54,高雄市立龍肚國民中學 高雄市美濃區龍山里中華路68號,高雄市市立龍肚國中(2018),AirBox,kaohsiung,2024-03-21,74DA38F20E3E,2.0,1.0,22.878,120.57,9.0,admin,12.0,14.0,7.0,58.0,25.0,2024-03-21T23:00:54Z
26,23:06:59,高雄市立龍肚國民中學 高雄市美濃區龍山里中華路68號,高雄市市立龍肚國中(2018),AirBox,kaohsiung,2024-03-21,74DA38F20E3E,2.0,1.0,22.878,120.57,9.0,admin,12.0,14.0,8.0,59.0,24.87,2024-03-21T23:06:59Z
27,23:13:04,高雄市立龍肚國民中學 高雄市美濃區龍山里中華路68號,高雄市市立龍肚國中(2018),AirBox,kaohsiung,2024-03-21,74DA38F20E3E,2.0,1.0,22.878,120.57,9.0,admin,11.0,12.0,7.0,59.0,24.87,2024-03-21T23:13:04Z
28,23:19:10,高雄市立龍肚國民中學 高雄市美濃區龍山里中華路68號,高雄市市立龍肚國中(2018),AirBox,kaohsiung,2024-03-21,74DA38F20E3E,2.0,1.0,22.878,120.57,9.0,admin,12.0,14.0,8.0,60.0,24.75,2024-03-21T23:19:10Z
29,23:25:16,高雄市立龍肚國民中學 高雄市美濃區龍山里中華路68號,高雄市市立龍肚國中(2018),AirBox,kaohsiung,2024-03-21,74DA38F20E3E,2.0,1.0,22.878,120.57,9.0,admin,13.0,15.0,8.0,60.0,24.87,2024-03-21T23:25:16Z
30,23:31:25,高雄市立龍肚國民中學 高雄市美濃區龍山里中華路68號,高雄市市立龍肚國中(2018),AirBox,kaohsiung,2024-03-21,74DA38F20E3E,2.0,1.0,22.878,120.57,9.0,admin,14.0,17.0,8.0,61.0,24.87,2024-03-21T23:31:25Z
31,23:37:31,高雄市立龍肚國民中學 高雄市美濃區龍山里中華路68號,高雄市市立龍肚國中(2018),AirBox,kaohsiung,2024-03-21,74DA38F20E3E,2.0,1.0,22.878,120.57,9.0,admin,13.0,15.0,8.0,60.0,24.87,2024-03-21T23:37:31Z
32,23:43:36,高雄市立龍肚國民中學 高雄市美濃區龍山里中華路68號,高雄市市立龍肚國中(2018),AirBox,kaohsiung,2024-03-21,74DA38F20E3E,2.0,1.0,22.878,120.57,9.0,admin,12.0,14.0,7.0,60.0,25.0,2024-03-21T23:43:36Z
33,23:49:46,高雄市立龍肚國民中學 高雄市美濃區龍山里中華路68號,高雄市市立龍肚國中(2018),AirBox,kaohsiung,2024-03-21,74DA38F20E3E,2.0,1.0,22.878,120.57,9.0,admin,14.0,16.0,9.0,60.0,25.0,2024-03-21T23:49:46Z
34,23:55:55,高雄市立龍肚國民中學 高雄市美濃區龍山里中華路68號,高雄市市立龍肚國中(2018),AirBox,kaohsiung,2024-03-21,74DA38F20E3E,2.0,1.0,22.878,120.57,9.0,admin,14.0,17.0,8.0,59.0,25.25,2024-03-21T23:55:55Z
35,00:02:05,高雄市立龍肚國民中學 高雄市美濃區龍山里中華路68號,高雄市市立龍肚國中(2018),AirBox,kaohsiung,2024-03-22,74DA38F20E3E,2.0,1.0,22.878,120.57,9.0,admin,19.0,23.0,9.0,60.0,25.25,2024-03-22T00:02:05Z
36,00:08:14,高雄市立龍肚國民中學 高雄市美濃區龍山里中華路68號,高雄市市立龍肚國中(2018),AirBox,kaohsiung,2024-03-22,74DA38F20E3E,2.0,1.0,22.878,120.57,9.0,admin,16.0,19.0,8.0,59.0,25.25,2024-03-22T00:08:14Z
37,00:14:21,高雄市立龍肚國民中學 高雄市美濃區龍山里中華路68號,高雄市市立龍肚國中(2018),AirBox,kaohsiung,2024-03-22,74DA38F20E3E,2.0,1.0,22.878,120.57,9.0,admin,17.0,20.0,9.0,59.0,25.37,2024-03-22T00:14:21Z
38,00:20:30,高雄市立龍肚國民中學 高雄市美濃區龍山里中華路68號,高雄市市立龍肚國中(2018),AirBox,kaohsiung,2024-03-22,74DA38F20E3E,2.0,1.0,22.878,120.57,9.0,admin,17.0,19.0,10.0,58.0,25.37,2024-03-22T00:20:30Z
39,00:26:43,高雄市立龍肚國民中學 高雄市美濃區龍山里中華路68號,高雄市市立龍肚國中(2018),AirBox,kaohsiung,2024-03-22,74DA38F20E3E,2.0,1.0,22.878,120.57,9.0,admin,14.0,16.0,8.0,59.0,25.5,2024-03-22T00:26:43Z
40,00:32:50,高雄市立龍肚國民中學 高雄市美濃區龍山里中華路68號,高雄市市立龍肚國中(2018),AirBox,kaohsiung,2024-03-22,74DA38F20E3E,2.0,1.0,22.878,120.57,9.0,admin,13.0,16.0,8.0,57.0,25.37,2024-03-22T00:32:50Z
41,00:38:59,高雄市立龍肚國民中學 高雄市美濃區龍山里中華路68號,高雄市市立龍肚國中(2018),AirBox,kaohsiung,2024-03-22,74DA38F20E3E,2.0,1.0,22.878,120.57,9.0,admin,11.0,12.0,7.0,57.0,25.5,2024-03-22T00:38:59Z
42,00:45:09,高雄市立龍肚國民中學 高雄市美濃區龍山里中華路68號,高雄市市立龍肚國中(2018),AirBox,kaohsiung,2024-03-22,74DA38F20E3E,2.0,1.0,22.878,120.57,9.0,admin,14.0,16.0,7.0,57.0,25.5,2024-03-22T00:45:09Z
43,00:51:18,高雄市立龍肚國民中學 高雄市美濃區龍山里中華路68號,高雄市市立龍肚國中(2018),AirBox,kaohsiung,2024-03-22,74DA38F20E3E,2.0,1.0,22.878,120.57,9.0,admin,14.0,16.0,8.0,56.0,25.75,2024-03-22T00:51:18Z
44,00:57:26,高雄市立龍肚國民中學 高雄市美濃區龍山里中華路68號,高雄市市立龍肚國中(2018),AirBox,kaohsiung,2024-03-22,74DA38F20E3E,2.0,1.0,22.878,120.57,9.0,admin,12.0,13.0,7.0,55.0,25.75,2024-03-22T00:57:26Z
45,01:03:33,高雄市立龍肚國民中學 高雄市美濃區龍山里中華路68號,高雄市市立龍肚國中(2018),AirBox,kaohsiung,2024-03-22,74DA38F20E3E,2.0,1.0,22.878,120.57,9.0,admin,11.0,13.0,7.0,54.0,25.87,2024-03-22T01:03:33Z
46,01:16:16,高雄市立龍肚國民中學 高雄市美濃區龍山里中華路68號,高雄市市立龍肚國中(2018),AirBox,kaohsiung,2024-03-22,74DA38F20E3E,2.0,1.0,22.878,120.57,9.0,admin,11.0,12.0,7.0,53.0,26.0,2024-03-22T01:16:16Z
47,01:22:22,高雄市立龍肚國民中學 高雄市美濃區龍山里中華路68號,高雄市市立龍肚國中(2018),AirBox,kaohsiung,2024-03-22,74DA38F20E3E,2.0,1.0,22.878,120.57,9.0,admin,11.0,12.0,7.0,52.0,26.12,2024-03-22T01:22:22Z
48,01:28:29,高雄市立龍肚國民中學 高雄市美濃區龍山里中華路68號,高雄市市立龍肚國中(2018),AirBox,kaohsiung,2024-03-22,74DA38F20E3E,2.0,1.0,22.878,120.57,9.0,admin,11.0,12.0,6.0,51.0,26.12,2024-03-22T01:28:29Z
49,01:34:36,高雄市立龍肚國民中學 高雄市美濃區龍山里中華路68號,高雄市市立龍肚國中(2018),AirBox,kaohsiung,2024-03-22,74DA38F20E3E,2.0,1.0,22.878,120.57,9.0,admin,11.0,13.0,6.0,50.0,26.12,2024-03-22T01:34:36Z
50,01:40:44,高雄市立龍肚國民中學 高雄市美濃區龍山里中華路68號,高雄市市立龍肚國中(2018),AirBox,kaohsiung,2024-03-22,74DA38F20E3E,2.0,1.0,22.878,120.57,9.0,admin,12.0,14.0,7.0,50.0,26.25,2024-03-22T01:40:44Z
51,01:46:52,高雄市立龍肚國民中學 高雄市美濃區龍山里中華路68號,高雄市市立龍肚國中(2018),AirBox,kaohsiung,2024-03-22,74DA38F20E3E,2.0,1.0,22.878,120.57,9.0,admin,11.0,13.0,7.0,51.0,26.25,2024-03-22T01:46:52Z
52,01:53:11,高雄市立龍肚國民中學 高雄市美濃區龍山里中華路68號,高雄市市立龍肚國中(2018),AirBox,kaohsiung,2024-03-22,74DA38F20E3E,2.0,1.0,22.878,120.57,9.0,admin,26.0,28.0,17.0,52.0,26.25,2024-03-22T01:53:11Z
53,01:59:20,高雄市立龍肚國民中學 高雄市美濃區龍山里中華路68號,高雄市市立龍肚國中(2018),AirBox,kaohsiung,2024-03-22,74DA38F20E3E,2.0,1.0,22.878,120.57,9.0,admin,27.0,31.0,20.0,52.0,26.37,2024-03-22T01:59:20Z
54,02:05:27,高雄市立龍肚國民中學 高雄市美濃區龍山里中華路68號,高雄市市立龍肚國中(2018),AirBox,kaohsiung,2024-03-22,74DA38F20E3E,2.0,1.0,22.878,120.57,9.0,admin,19.0,21.0,13.0,52.0,26.62,2024-03-22T02:05:27Z
55,02:11:37,高雄市立龍肚國民中學 高雄市美濃區龍山里中華路68號,高雄市市立龍肚國中(2018),AirBox,kaohsiung,2024-03-22,74DA38F20E3E,2.0,1.0,22.878,120.57,9.0,admin,28.0,32.0,21.0,52.0,26.5,2024-03-22T02:11:37Z
56,02:17:45,高雄市立龍肚國民中學 高雄市美濃區龍山里中華路68號,高雄市市立龍肚國中(2018),AirBox,kaohsiung,2024-03-22,74DA38F20E3E,2.0,1.0,22.878,120.57,9.0,admin,27.0,30.0,20.0,52.0,26.5,2024-03-22T02:17:45Z
57,02:23:55,高雄市立龍肚國民中學 高雄市美濃區龍山里中華路68號,高雄市市立龍肚國中(2018),AirBox,kaohsiung,2024-03-22,74DA38F20E3E,2.0,1.0,22.878,120.57,9.0,admin,32.0,35.0,24.0,52.0,26.5,2024-03-22T02:23:55Z
58,02:30:06,高雄市立龍肚國民中學 高雄市美濃區龍山里中華路68號,高雄市市立龍肚國中(2018),AirBox,kaohsiung,2024-03-22,74DA38F20E3E,2.0,1.0,22.878,120.57,9.0,admin,31.0,35.0,24.0,51.0,26.5,2024-03-22T02:30:06Z
59,02:36:15,高雄市立龍肚國民中學 高雄市美濃區龍山里中華路68號,高雄市市立龍肚國中(2018),AirBox,kaohsiung,2024-03-22,74DA38F20E3E,2.0,1.0,22.878,120.57,9.0,admin,26.0,29.0,20.0,51.0,26.5,2024-03-22T02:36:15Z
60,02:42:26,高雄市立龍肚國民中學 高雄市美濃區龍山里中華路68號,高雄市市立龍肚國中(2018),AirBox,kaohsiung,2024-03-22,74DA38F20E3E,2.0,1.0,22.878,120.57,9.0,admin,30.0,34.0,23.0,51.0,26.5,2024-03-22T02:42:26Z
61,02:48:34,高雄市立龍肚國民中學 高雄市美濃區龍山里中華路68號,高雄市市立龍肚國中(2018),AirBox,kaohsiung,2024-03-22,74DA38F20E3E,2.0,1.0,22.878,120.57,9.0,admin,28.0,32.0,21.0,51.0,26.5,2024-03-22T02:48:34Z
62,02:54:44,高雄市立龍肚國民中學 高雄市美濃區龍山里中華路68號,高雄市市立龍肚國中(2018),AirBox,kaohsiung,2024-03-22,74DA38F20E3E,2.0,1.0,22.878,120.57,9.0,admin,17.0,20.0,12.0,51.0,26.62,2024-03-22T02:54:44Z
63,03:00:51,高雄市立龍肚國民中學 高雄市美濃區龍山里中華路68號,高雄市市立龍肚國中(2018),AirBox,kaohsiung,2024-03-22,74DA38F20E3E,2.0,1.0,22.878,120.57,9.0,admin,21.0,24.0,15.0,49.0,26.75,2024-03-22T03:00:51Z
64,03:07:00,高雄市立龍肚國民中學 高雄市美濃區龍山里中華路68號,高雄市市立龍肚國中(2018),AirBox,kaohsiung,2024-03-22,74DA38F20E3E,2.0,1.0,22.878,120.57,9.0,admin,28.0,31.0,22.0,49.0,26.75,2024-03-22T03:07:00Z
65,03:13:07,高雄市立龍肚國民中學 高雄市美濃區龍山里中華路68號,高雄市市立龍肚國中(2018),AirBox,kaohsiung,2024-03-22,74DA38F20E3E,2.0,1.0,22.878,120.57,9.0,admin,38.0,45.0,30.0,49.0,26.75,2024-03-22T03:13:07Z
66,03:19:14,高雄市立龍肚國民中學 高雄市美濃區龍山里中華路68號,高雄市市立龍肚國中(2018),AirBox,kaohsiung,2024-03-22,74DA38F20E3E,2.0,1.0,22.878,120.57,9.0,admin,23.0,24.0,17.0,48.0,26.87,2024-03-22T03:19:14Z
67,03:25:25,高雄市立龍肚國民中學 高雄市美濃區龍山里中華路68號,高雄市市立龍肚國中(2018),AirBox,kaohsiung,2024-03-22,74DA38F20E3E,2.0,1.0,22.878,120.57,9.0,admin,16.0,18.0,11.0,48.0,26.87,2024-03-22T03:25:25Z
68,03:31:33,高雄市立龍肚國民中學 高雄市美濃區龍山里中華路68號,高雄市市立龍肚國中(2018),AirBox,kaohsiung,2024-03-22,74DA38F20E3E,2.0,1.0,22.878,120.57,9.0,admin,16.0,16.0,12.0,47.0,27.0,2024-03-22T03:31:33Z
69,03:37:43,高雄市立龍肚國民中學 高雄市美濃區龍山里中華路68號,高雄市市立龍肚國中(2018),AirBox,kaohsiung,2024-03-22,74DA38F20E3E,2.0,1.0,22.878,120.57,9.0,admin,13.0,14.0,8.0,47.0,27.12,2024-03-22T03:37:43Z
70,03:43:54,高雄市立龍肚國民中學 高雄市美濃區龍山里中華路68號,高雄市市立龍肚國中(2018),AirBox,kaohsiung,2024-03-22,74DA38F20E3E,2.0,1.0,22.878,120.57,9.0,admin,13.0,14.0,8.0,47.0,27.25,2024-03-22T03:43:54Z
71,03:50:05,高雄市立龍肚國民中學 高雄市美濃區龍山里中華路68號,高雄市市立龍肚國中(2018),AirBox,kaohsiung,2024-03-22,74DA38F20E3E,2.0,1.0,22.878,120.57,9.0,admin,12.0,13.0,7.0,47.0,27.25,2024-03-22T03:50:05Z
72,03:56:12,高雄市立龍肚國民中學 高雄市美濃區龍山里中華路68號,高雄市市立龍肚國中(2018),AirBox,kaohsiung,2024-03-22,74DA38F20E3E,2.0,1.0,22.878,120.57,9.0,admin,12.0,13.0,7.0,47.0,27.37,2024-03-22T03:56:12Z
73,04:02:25,高雄市立龍肚國民中學 高雄市美濃區龍山里中華路68號,高雄市市立龍肚國中(2018),AirBox,kaohsiung,2024-03-22,74DA38F20E3E,2.0,1.0,22.878,120.57,9.0,admin,12.0,14.0,7.0,48.0,27.37,2024-03-22T04:02:25Z
74,04:08:33,高雄市立龍肚國民中學 高雄市美濃區龍山里中華路68號,高雄市市立龍肚國中(2018),AirBox,kaohsiung,2024-03-22,74DA38F20E3E,2.0,1.0,22.878,120.57,9.0,admin,12.0,13.0,7.0,47.0,27.37,2024-03-22T04:08:33Z
75,04:14:43,高雄市立龍肚國民中學 高雄市美濃區龍山里中華路68號,高雄市市立龍肚國中(2018),AirBox,kaohsiung,2024-03-22,74DA38F20E3E,2.0,1.0,22.878,120.57,9.0,admin,13.0,15.0,8.0,48.0,27.25,2024-03-22T04:14:43Z
76,04:20:50,高雄市立龍肚國民中學 高雄市美濃區龍山里中華路68號,高雄市市立龍肚國中(2018),AirBox,kaohsiung,2024-03-22,74DA38F20E3E,2.0,1.0,22.878,120.57,9.0,admin,14.0,15.0,8.0,49.0,26.75,2024-03-22T04:20:50Z
77,04:26:58,高雄市立龍肚國民中學 高雄市美濃區龍山里中華路68號,高雄市市立龍肚國中(2018),AirBox,kaohsiung,2024-03-22,74DA38F20E3E,2.0,1.0,22.878,120.57,9.0,admin,18.0,20.0,13.0,49.0,26.5,2024-03-22T04:26:58Z
78,04:33:09,高雄市立龍肚國民中學 高雄市美濃區龍山里中華路68號,高雄市市立龍肚國中(2018),AirBox,kaohsiung,2024-03-22,74DA38F20E3E,2.0,1.0,22.878,120.57,9.0,admin,23.0,24.0,17.0,49.0,26.75,2024-03-22T04:33:09Z
79,04:39:16,高雄市立龍肚國民中學 高雄市美濃區龍山里中華路68號,高雄市市立龍肚國中(2018),AirBox,kaohsiung,2024-03-22,74DA38F20E3E,2.0,1.0,22.878,120.57,9.0,admin,18.0,19.0,14.0,48.0,27.0,2024-03-22T04:39:16Z
80,04:45:24,高雄市立龍肚國民中學 高雄市美濃區龍山里中華路68號,高雄市市立龍肚國中(2018),AirBox,kaohsiung,2024-03-22,74DA38F20E3E,2.0,1.0,22.878,120.57,9.0,admin,15.0,16.0,10.0,47.0,27.12,2024-03-22T04:45:24Z
81,04:51:35,高雄市立龍肚國民中學 高雄市美濃區龍山里中華路68號,高雄市市立龍肚國中(2018),AirBox,kaohsiung,2024-03-22,74DA38F20E3E,2.0,1.0,22.878,120.57,9.0,admin,11.0,13.0,7.0,47.0,27.37,2024-03-22T04:51:35Z
82,04:57:44,高雄市立龍肚國民中學 高雄市美濃區龍山里中華路68號,高雄市市立龍肚國中(2018),AirBox,kaohsiung,2024-03-22,74DA38F20E3E,2.0,1.0,22.878,120.57,9.0,admin,12.0,14.0,7.0,46.0,27.5,2024-03-22T04:57:44Z
83,05:03:51,高雄市立龍肚國民中學 高雄市美濃區龍山里中華路68號,高雄市市立龍肚國中(2018),AirBox,kaohsiung,2024-03-22,74DA38F20E3E,2.0,1.0,22.878,120.57,9.0,admin,10.0,12.0,6.0,46.0,27.62,2024-03-22T05:03:51Z
84,05:09:59,高雄市立龍肚國民中學 高雄市美濃區龍山里中華路68號,高雄市市立龍肚國中(2018),AirBox,kaohsiung,2024-03-22,74DA38F20E3E,2.0,1.0,22.878,120.57,9.0,admin,11.0,12.0,6.0,46.0,27.75,2024-03-22T05:09:59Z
85,05:16:05,高雄市立龍肚國民中學 高雄市美濃區龍山里中華路68號,高雄市市立龍肚國中(2018),AirBox,kaohsiung,2024-03-22,74DA38F20E3E,2.0,1.0,22.878,120.57,9.0,admin,11.0,13.0,6.0,46.0,27.75,2024-03-22T05:16:05Z
86,05:22:19,高雄市立龍肚國民中學 高雄市美濃區龍山里中華路68號,高雄市市立龍肚國中(2018),AirBox,kaohsiung,2024-03-22,74DA38F20E3E,2.0,1.0,22.878,120.57,9.0,admin,11.0,12.0,6.0,46.0,27.62,2024-03-22T05:22:19Z
87,05:28:25,高雄市立龍肚國民中學 高雄市美濃區龍山里中華路68號,高雄市市立龍肚國中(2018),AirBox,kaohsiung,2024-03-22,74DA38F20E3E,2.0,1.0,22.878,120.57,9.0,admin,11.0,12.0,6.0,47.0,27.75,2024-03-22T05:28:25Z
88,05:41:07,高雄市立龍肚國民中學 高雄市美濃區龍山里中華路68號,高雄市市立龍肚國中(2018),AirBox,kaohsiung,2024-03-22,74DA38F20E3E,2.0,1.0,22.878,120.57,9.0,admin,9.0,11.0,6.0,47.0,27.75,2024-03-22T05:41:07Z
89,05:47:14,高雄市立龍肚國民中學 高雄市美濃區龍山里中華路68號,高雄市市立龍肚國中(2018),AirBox,kaohsiung,2024-03-22,74DA38F20E3E,2.0,1.0,22.878,120.57,9.0,admin,10.0,12.0,6.0,47.0,27.75,2024-03-22T05:47:14Z
90,05:53:22,高雄市立龍肚國民中學 高雄市美濃區龍山里中華路68號,高雄市市立龍肚國中(2018),AirBox,kaohsiung,2024-03-22,74DA38F20E3E,2.0,1.0,22.878,120.57,9.0,admin,10.0,11.0,6.0,46.0,27.87,2024-03-22T05:53:22Z
91,05:59:31,高雄市立龍肚國民中學 高雄市美濃區龍山里中華路68號,高雄市市立龍肚國中(2018),AirBox,kaohsiung,2024-03-22,74DA38F20E3E,2.0,1.0,22.878,120.57,9.0,admin,10.0,11.0,6.0,46.0,27.87,2024-03-22T05:59:31Z
92,06:05:43,高雄市立龍肚國民中學 高雄市美濃區龍山里中華路68號,高雄市市立龍肚國中(2018),AirBox,kaohsiung,2024-03-22,74DA38F20E3E,2.0,1.0,22.878,120.57,9.0,admin,10.0,11.0,6.0,45.0,28.0,2024-03-22T06:05:43Z
93,06:11:58,高雄市立龍肚國民中學 高雄市美濃區龍山里中華路68號,高雄市市立龍肚國中(2018),AirBox,kaohsiung,2024-03-22,74DA38F20E3E,2.0,1.0,22.878,120.57,9.0,admin,9.0,10.0,5.0,44.0,28.0,2024-03-22T06:11:58Z
94,06:18:07,高雄市立龍肚國民中學 高雄市美濃區龍山里中華路68號,高雄市市立龍肚國中(2018),AirBox,kaohsiung,2024-03-22,74DA38F20E3E,2.0,1.0,22.878,120.57,9.0,admin,10.0,11.0,5.0,44.0,28.11,2024-03-22T06:18:07Z
95,06:24:15,高雄市立龍肚國民中學 高雄市美濃區龍山里中華路68號,高雄市市立龍肚國中(2018),AirBox,kaohsiung,2024-03-22,74DA38F20E3E,2.0,1.0,22.878,120.57,9.0,admin,10.0,11.0,6.0,44.0,28.25,2024-03-22T06:24:15Z
96,06:30:21,高雄市立龍肚國民中學 高雄市美濃區龍山里中華路68號,高雄市市立龍肚國中(2018),AirBox,kaohsiung,2024-03-22,74DA38F20E3E,2.0,1.0,22.878,120.57,9.0,admin,9.0,11.0,5.0,44.0,28.36,2024-03-22T06:30:21Z
97,06:36:29,高雄市立龍肚國民中學 高雄市美濃區龍山里中華路68號,高雄市市立龍肚國中(2018),AirBox,kaohsiung,2024-03-22,74DA38F20E3E,2.0,1.0,22.878,120.57,9.0,admin,9.0,10.0,5.0,44.0,28.36,2024-03-22T06:36:29Z
98,06:42:37,高雄市立龍肚國民中學 高雄市美濃區龍山里中華路68號,高雄市市立龍肚國中(2018),AirBox,kaohsiung,2024-03-22,74DA38F20E3E,2.0,1.0,22.878,120.57,9.0,admin,11.0,12.0,6.0,45.0,28.36,2024-03-22T06:42:37Z
99,06:48:43,高雄市立龍肚國民中學 高雄市美濃區龍山里中華路68號,高雄市市立龍肚國中(2018),AirBox,kaohsiung,2024-03-22,74DA38F20E3E,2.0,1.0,22.878,120.57,9.0,admin,10.0,11.0,5.0,44.0,28.36,2024-03-22T06:48:43Z
100,06:54:53,高雄市立龍肚國民中學 高雄市美濃區龍山里中華路68號,高雄市市立龍肚國中(2018),AirBox,kaohsiung,2024-03-22,74DA38F20E3E,2.0,1.0,22.878,120.57,9.0,admin,10.0,10.0,5.0,45.0,28.36,2024-03-22T06:54:53Z
101,07:01:05,高雄市立龍肚國民中學 高雄市美濃區龍山里中華路68號,高雄市市立龍肚國中(2018),AirBox,kaohsiung,2024-03-22,74DA38F20E3E,2.0,1.0,22.878,120.57,9.0,admin,11.0,11.0,6.0,46.0,28.61,2024-03-22T07:01:05Z
102,07:07:12,高雄市立龍肚國民中學 高雄市美濃區龍山里中華路68號,高雄市市立龍肚國中(2018),AirBox,kaohsiung,2024-03-22,74DA38F20E3E,2.0,1.0,22.878,120.57,9.0,admin,12.0,14.0,6.0,47.0,28.75,2024-03-22T07:07:12Z
103,07:13:19,高雄市立龍肚國民中學 高雄市美濃區龍山里中華路68號,高雄市市立龍肚國中(2018),AirBox,kaohsiung,2024-03-22,74DA38F20E3E,2.0,1.0,22.878,120.57,9.0,admin,12.0,14.0,7.0,47.0,28.61,2024-03-22T07:13:19Z
104,07:19:25,高雄市立龍肚國民中學 高雄市美濃區龍山里中華路68號,高雄市市立龍肚國中(2018),AirBox,kaohsiung,2024-03-22,74DA38F20E3E,2.0,1.0,22.878,120.57,9.0,admin,11.0,12.0,6.0,47.0,28.5,2024-03-22T07:19:25Z
105,07:25:31,高雄市立龍肚國民中學 高雄市美濃區龍山里中華路68號,高雄市市立龍肚國中(2018),AirBox,kaohsiung,2024-03-22,74DA38F20E3E,2.0,1.0,22.878,120.57,9.0,admin,11.0,12.0,6.0,47.0,28.36,2024-03-22T07:25:31Z
106,07:31:38,高雄市立龍肚國民中學 高雄市美濃區龍山里中華路68號,高雄市市立龍肚國中(2018),AirBox,kaohsiung,2024-03-22,74DA38F20E3E,2.0,1.0,22.878,120.57,9.0,admin,12.0,13.0,6.0,47.0,28.36,2024-03-22T07:31:38Z
107,07:37:48,高雄市立龍肚國民中學 高雄市美濃區龍山里中華路68號,高雄市市立龍肚國中(2018),AirBox,kaohsiung,2024-03-22,74DA38F20E3E,2.0,1.0,22.878,120.57,9.0,admin,11.0,12.0,6.0,48.0,28.25,2024-03-22T07:37:48Z
108,07:43:53,高雄市立龍肚國民中學 高雄市美濃區龍山里中華路68號,高雄市市立龍肚國中(2018),AirBox,kaohsiung,2024-03-22,74DA38F20E3E,2.0,1.0,22.878,120.57,9.0,admin,12.0,13.0,7.0,48.0,28.25,2024-03-22T07:43:53Z
109,07:50:07,高雄市立龍肚國民中學 高雄市美濃區龍山里中華路68號,高雄市市立龍肚國中(2018),AirBox,kaohsiung,2024-03-22,74DA38F20E3E,2.0,1.0,22.878,120.57,9.0,admin,12.0,13.0,7.0,48.0,28.25,2024-03-22T07:50:07Z
110,07:56:13,高雄市立龍肚國民中學 高雄市美濃區龍山里中華路68號,高雄市市立龍肚國中(2018),AirBox,kaohsiung,2024-03-22,74DA38F20E3E,2.0,1.0,22.878,120.57,9.0,admin,13.0,14.0,7.0,48.0,28.25,2024-03-22T07:56:13Z
111,08:02:22,高雄市立龍肚國民中學 高雄市美濃區龍山里中華路68號,高雄市市立龍肚國中(2018),AirBox,kaohsiung,2024-03-22,74DA38F20E3E,2.0,1.0,22.878,120.57,9.0,admin,12.0,12.0,7.0,49.0,28.25,2024-03-22T08:02:22Z
112,08:08:29,高雄市立龍肚國民中學 高雄市美濃區龍山里中華路68號,高雄市市立龍肚國中(2018),AirBox,kaohsiung,2024-03-22,74DA38F20E3E,2.0,1.0,22.878,120.57,9.0,admin,12.0,13.0,7.0,49.0,28.25,2024-03-22T08:08:29Z
113,08:14:39,高雄市立龍肚國民中學 高雄市美濃區龍山里中華路68號,高雄市市立龍肚國中(2018),AirBox,kaohsiung,2024-03-22,74DA38F20E3E,2.0,1.0,22.878,120.57,9.0,admin,13.0,15.0,7.0,49.0,28.36,2024-03-22T08:14:39Z
114,08:20:47,高雄市立龍肚國民中學 高雄市美濃區龍山里中華路68號,高雄市市立龍肚國中(2018),AirBox,kaohsiung,2024-03-22,74DA38F20E3E,2.0,1.0,22.878,120.57,9.0,admin,13.0,14.0,7.0,49.0,28.5,2024-03-22T08:20:47Z
115,08:26:53,高雄市立龍肚國民中學 高雄市美濃區龍山里中華路68號,高雄市市立龍肚國中(2018),AirBox,kaohsiung,2024-03-22,74DA38F20E3E,2.0,1.0,22.878,120.57,9.0,admin,13.0,15.0,7.0,49.0,28.5,2024-03-22T08:26:53Z
116,08:33:01,高雄市立龍肚國民中學 高雄市美濃區龍山里中華路68號,高雄市市立龍肚國中(2018),AirBox,kaohsiung,2024-03-22,74DA38F20E3E,2.0,1.0,22.878,120.57,9.0,admin,12.0,14.0,7.0,49.0,28.36,2024-03-22T08:33:01Z
117,08:39:09,高雄市立龍肚國民中學 高雄市美濃區龍山里中華路68號,高雄市市立龍肚國中(2018),AirBox,kaohsiung,2024-03-22,74DA38F20E3E,2.0,1.0,22.878,120.57,9.0,admin,13.0,15.0,8.0,50.0,28.36,2024-03-22T08:39:09Z
118,08:45:16,高雄市立龍肚國民中學 高雄市美濃區龍山里中華路68號,高雄市市立龍肚國中(2018),AirBox,kaohsiung,2024-03-22,74DA38F20E3E,2.0,1.0,22.878,120.57,9.0,admin,13.0,14.0,8.0,50.0,28.36,2024-03-22T08:45:16Z
119,08:51:36,高雄市立龍肚國民中學 高雄市美濃區龍山里中華路68號,高雄市市立龍肚國中(2018),AirBox,kaohsiung,2024-03-22,74DA38F20E3E,2.0,1.0,22.878,120.57,9.0,admin,12.0,14.0,8.0,50.0,28.5,2024-03-22T08:51:36Z
120,08:57:42,高雄市立龍肚國民中學 高雄市美濃區龍山里中華路68號,高雄市市立龍肚國中(2018),AirBox,kaohsiung,2024-03-22,74DA38F20E3E,2.0,1.0,22.878,120.57,9.0,admin,13.0,15.0,8.0,51.0,28.5,2024-03-22T08:57:42Z
121,09:03:52,高雄市立龍肚國民中學 高雄市美濃區龍山里中華路68號,高雄市市立龍肚國中(2018),AirBox,kaohsiung,2024-03-22,74DA38F20E3E,2.0,1.0,22.878,120.57,9.0,admin,13.0,14.0,8.0,51.0,28.36,2024-03-22T09:03:52Z
122,09:10:02,高雄市立龍肚國民中學 高雄市美濃區龍山里中華路68號,高雄市市立龍肚國中(2018),AirBox,kaohsiung,2024-03-22,74DA38F20E3E,2.0,1.0,22.878,120.57,9.0,admin,13.0,14.0,7.0,51.0,28.36,2024-03-22T09:10:02Z
123,09:16:10,高雄市立龍肚國民中學 高雄市美濃區龍山里中華路68號,高雄市市立龍肚國中(2018),AirBox,kaohsiung,2024-03-22,74DA38F20E3E,2.0,1.0,22.878,120.57,9.0,admin,12.0,13.0,7.0,51.0,28.5,2024-03-22T09:16:10Z
124,09:22:15,高雄市立龍肚國民中學 高雄市美濃區龍山里中華路68號,高雄市市立龍肚國中(2018),AirBox,kaohsiung,2024-03-22,74DA38F20E3E,2.0,1.0,22.878,120.57,9.0,admin,11.0,13.0,7.0,52.0,28.36,2024-03-22T09:22:15Z
125,09:28:21,高雄市立龍肚國民中學 高雄市美濃區龍山里中華路68號,高雄市市立龍肚國中(2018),AirBox,kaohsiung,2024-03-22,74DA38F20E3E,2.0,1.0,22.878,120.57,9.0,admin,11.0,13.0,7.0,52.0,28.36,2024-03-22T09:28:21Z
126,09:34:29,高雄市立龍肚國民中學 高雄市美濃區龍山里中華路68號,高雄市市立龍肚國中(2018),AirBox,kaohsiung,2024-03-22,74DA38F20E3E,2.0,1.0,22.878,120.57,9.0,admin,11.0,13.0,6.0,52.0,28.36,2024-03-22T09:34:29Z
127,09:40:34,高雄市立龍肚國民中學 高雄市美濃區龍山里中華路68號,高雄市市立龍肚國中(2018),AirBox,kaohsiung,2024-03-22,74DA38F20E3E,2.0,1.0,22.878,120.57,9.0,admin,11.0,12.0,6.0,52.0,28.36,2024-03-22T09:40:34Z
128,09:46:41,高雄市立龍肚國民中學 高雄市美濃區龍山里中華路68號,高雄市市立龍肚國中(2018),AirBox,kaohsiung,2024-03-22,74DA38F20E3E,2.0,1.0,22.878,120.57,9.0,admin,11.0,12.0,6.0,52.0,28.36,2024-03-22T09:46:41Z
129,09:52:47,高雄市立龍肚國民中學 高雄市美濃區龍山里中華路68號,高雄市市立龍肚國中(2018),AirBox,kaohsiung,2024-03-22,74DA38F20E3E,2.0,1.0,22.878,120.57,9.0,admin,10.0,12.0,5.0,52.0,28.5,2024-03-22T09:52:47Z
130,09:58:53,高雄市立龍肚國民中學 高雄市美濃區龍山里中華路68號,高雄市市立龍肚國中(2018),AirBox,kaohsiung,2024-03-22,74DA38F20E3E,2.0,1.0,22.878,120.57,9.0,admin,10.0,11.0,6.0,53.0,28.36,2024-03-22T09:58:53Z
131,10:04:59,高雄市立龍肚國民中學 高雄市美濃區龍山里中華路68號,高雄市市立龍肚國中(2018),AirBox,kaohsiung,2024-03-22,74DA38F20E3E,2.0,1.0,22.878,120.57,9.0,admin,10.0,12.0,6.0,53.0,28.36,2024-03-22T10:04:59Z
132,10:11:05,高雄市立龍肚國民中學 高雄市美濃區龍山里中華路68號,高雄市市立龍肚國中(2018),AirBox,kaohsiung,2024-03-22,74DA38F20E3E,2.0,1.0,22.878,120.57,9.0,admin,10.0,11.0,6.0,53.0,28.36,2024-03-22T10:11:05Z
133,10:17:13,高雄市立龍肚國民中學 高雄市美濃區龍山里中華路68號,高雄市市立龍肚國中(2018),AirBox,kaohsiung,2024-03-22,74DA38F20E3E,2.0,1.0,22.878,120.57,9.0,admin,10.0,11.0,6.0,53.0,28.36,2024-03-22T10:17:13Z
134,10:23:37,高雄市立龍肚國民中學 高雄市美濃區龍山里中華路68號,高雄市市立龍肚國中(2018),AirBox,kaohsiung,2024-03-22,74DA38F20E3E,2.0,1.0,22.878,120.57,9.0,admin,10.0,11.0,6.0,53.0,28.5,2024-03-22T10:23:37Z
135,10:29:43,高雄市立龍肚國民中學 高雄市美濃區龍山里中華路68號,高雄市市立龍肚國中(2018),AirBox,kaohsiung,2024-03-22,74DA38F20E3E,2.0,1.0,22.878,120.57,9.0,admin,10.0,10.0,6.0,53.0,28.5,2024-03-22T10:29:43Z
136,10:35:50,高雄市立龍肚國民中學 高雄市美濃區龍山里中華路68號,高雄市市立龍肚國中(2018),AirBox,kaohsiung,2024-03-22,74DA38F20E3E,2.0,1.0,22.878,120.57,9.0,admin,10.0,12.0,5.0,52.0,28.5,2024-03-22T10:35:50Z